sat.trackr.live / text

‹ back to catalog

STARLINK-35578

NORAD 66168 · 2025-240Y

PAYLOAD ACTIVE UNKNOWN

§ Identity

Operator
Country
US
Launch date
2025-10-25
Launch site
AFWTR
Launch vehicle
Mass (kg)
RCS (m²)

Purposes: comms

External: N2YO · Heavens-Above · Gunter

§ Orbital elements

Epoch: 2026-09-20T07:51:04.749984Z

Period
93.85 min
Inclination
53.1573°
Eccentricity
0.0001390
Mean motion
15.34402091 rev/d
Perigee alt
461.7 km
Apogee alt
463.6 km
Semi-major
6,840.8 km
B*
5.2161e-4
RAAN
236.2246°
Arg perigee
97.3141°
Mean anomaly
262.8019°
Rev number
5,182

§ Raw data

STARLINK-355781 66168U 25240Y   26263.32713831  .00017289  00000+0  52161-3 0  99912 66168  53.1573 236.2246 0001390  97.3141 262.8019 15.34402091 51829

JSON: /api/v1/satellites/66168 · /tle

For live sub-satellite position, see the globe view (requires WebGL).

§ Visibility from observer

Set your observer location to see the next 7 days of passes ≥ 10°. The values pass through the URL so the page stays shareable.

No JS? Fill the form by hand. The geolocation button needs JavaScript.